Temp
23 24 24 26 26 27 28 28 28 29 30 27 28 29 30 30 28 27 27 24 21 20 20 19 18 18 17 15 13 12 12 11 11 11 11 12 11 11 11 11 11 9 10 9
23 22 25 26 27 27 27 27 28 29 30 29 28 28 30 30 30 29 27 25 22 20 20 19 18 17 17 15 14 12 12 11 11 12 12 12 12 12 11 11 11 9 9 9
23 24 24 25 25 25 26 26 27 27 28 29 27 27 28 30 30 28 27 26 23 21 21 19 18 17 17 15 14 13 13 12 11 12 12 12 12 12 11 11 10 9 9 9
24 25 25 23 23 25 24 26 26 26 26 25 27 25 28 29 29 29 27 26 24 22 21 20 19 18 17 16 15 14 13 12 12 12 12 12 12 12 12 11 11 10 9 9
23 24 24 24 24 25 24 25 25 25 26 26 26 26 28 29 29 28 29 26 25 23 22 20 19 18 17 17 15 14 14 13 12 12 13 12 12 12 12 11 11 10 9 9
24 25 26 25 26 25 25 25 25 26 25 24 25 26 27 28 27 29 29 29 26 24 22 21 20 19 18 17 16 15 14 14 12 12 12 12 12 13 13 12 11 10 10 9
23 24 25 25 24 25 25 24 22 22 22 22 26 25 26 29 30 28 29 29 27 25 23 21 21 20 19 17 16 15 15 14 13 12 12 12 12 12 13 12 11 11 10 9
22 22 24 25 24 23 24 23 22 20 22 24 26 24 26 29 29 28 28 28 27 25 23 22 21 21 20 18 17 15 15 15 14 13 12 12 12 12 12 12 12 11 11 10
22 22 26 25 25 24 24 23 25 22 23 23 26 27 28 28 29 29 28 27 26 25 23 22 22 21 20 19 17 15 15 15 15 13 12 12 11 12 12 12 11 11 11 11
22 21 24 26 25 24 24 25 22 23 20 21 24 25 26 27 27 28 28 27 26 25 24 23 23 21 20 19 18 15 15 15 15 14 13 12 12 11 12 12 11 11 11 10
23 22 22 24 24 23 23 24 24 23 23 22 21 24 28 28 28 27 28 28 27 25 24 24 23 21 20 19 18 16 15 15 15 14 13 12 12 11 11 11 11 11 11 10
23 22 21 22 25 25 24 23 24 22 21 23 23 24 28 29 28 28 28 27 27 26 24 24 23 21 20 19 18 17 15 15 15 14 13 12 12 12 11 11 11 11 10 10
23 22 20 21 23 24 23 24 24 24 23 22 22 23 28 28 28 28 27 27 26 25 25 24 23 21 20 19 18 18 16 15 15 15 14 12 12 12 11 11 11 11 10 10
20 21 21 20 21 23 22 22 24 23 22 22 23 24 26 27 26 27 26 26 25 25 24 23 22 21 20 19 18 18 17 16 15 15 14 13 12 12 11 11 11 10 10 9
19 18 20 21 22 23 24 23 23 22 23 22 23 24 26 27 26 27 26 26 25 25 24 23 23 22 21 20 18 17 17 16 15 15 15 13 13 12 11 11 10 10 10 9
16 18 19 19 22 22 23 24 23 23 24 24 24 24 27 27 26 26 26 25 25 25 24 23 22 21 21 20 18 17 17 16 16 15 15 14 13 11 11 11 10 10 10 9
10 14 18 18 21 21 21 22 24 24 24 24 23 24 26 27 27 27 26 25 25 24 23 20 20 19 19 19 18 18 17 16 15 15 15 14 13 12 11 11 10 10 9 9
9 10 14 18 20 17 21 24 25 24 24 25 25 25 26 26 26 25 25 24 24 23 20 19 18 17 17 17 17 17 17 16 15 15 14 14 13 12 11 11 10 10 9 9
9 9 12 16 18 20 22 23 23 23 23 25 25 25 26 26 25 24 23 22 21 19 18 17 16 16 16 16 16 16 17 16 15 14 14 14 13 12 12 10 10 9 9 8
11 11 12 15 17 17 21 24 24 25 22 25 25 25 25 25 22 22 19 19 18 17 16 16 15 15 15 15 15 16 16 15 14 14 13 13 12 11 11 10 9 9 8 8
11 11 11 14 16 20 23 24 24 20 21 25 25 25 24 22 23 22 17 16 16 16 15 15 15 14 14 14 14 15 14 14 13 12 12 11 11 10 10 9 9 9 9 8
9 11 12 14 15 17 23 21 20 22 22 23 24 24 24 21 18 17 16 16 15 15 15 14 14 13 14 14 14 14 13 12 11 11 11 10 10 10 9 9 9 8 8 7
9 8 12 16 17 16 16 17 16 17 20 21 22 23 20 17 16 16 15 15 15 15 15 14 13 12 12 12 13 11 11 11 10 10 10 10 9 9 9 8 8 8 8 7
15 9 8 10 13 14 14 14 15 17 18 19 19 17 16 16 15 15 14 14 14 14 13 13 12 11 11 10 10 10 10 10 10 10 10 9 8 8 8 7 7 7 8 7
16 14 11 8 11 11 12 13 14 16 16 16 15 15 15 14 14 14 13 13 12 12 12 11 11 10 10 10 9 8 8 9 9 9 9 8 8 8 7 7 7 6 6 6
17 15 14 13 13 15 12 12 12 13 14 14 14 14 14 14 13 12 11 11 11 10 10 9 9 9 9 9 8 7 7 8 7 8 8 8 7 7 8 7 7 7 6 6
Height
1499 1498 1491 1486 1484 1483 1479 1475 1474 1471 1464 1481 1477 1475 1468 1471 1477 1483 1488 1499 1506 1510 1515 1520 1524 1529 1533 1536 1540 1542 1546 1549 1553 1557 1561 1564 1567 1570 1574 1576 1578 1578 1582 1584
1496 1488 1483 1483 1481 1481 1478 1475 1469 1462 1461 1466 1469 1470 1465 1467 1466 1471 1480 1491 1500 1506 1510 1515 1520 1525 1529 1532 1535 1538 1542 1545 1549 1554 1558 1562 1565 1568 1570 1574 1575 1576 1579 1581
1486 1482 1487 1484 1482 1482 1478 1478 1473 1471 1463 1462 1473 1477 1466 1461 1461 1467 1476 1483 1493 1499 1504 1510 1515 1520 1524 1528 1531 1534 1538 1541 1545 1551 1555 1559 1562 1565 1567 1570 1572 1573 1576 1578
1476 1478 1477 1483 1483 1479 1483 1473 1472 1472 1473 1479 1466 1482 1460 1456 1455 1460 1473 1478 1485 1492 1499 1504 1510 1514 1518 1523 1527 1531 1534 1538 1541 1546 1551 1555 1557 1559 1562 1565 1568 1571 1573 1575
1462 1469 1471 1473 1471 1476 1474 1475 1474 1475 1473 1470 1464 1470 1452 1443 1447 1453 1458 1467 1474 1482 1490 1497 1503 1508 1513 1518 1522 1527 1531 1535 1538 1540 1546 1550 1554 1557 1560 1562 1565 1567 1569 1572
1459 1461 1461 1462 1463 1468 1471 1473 1470 1467 1471 1478 1464 1464 1451 1445 1448 1447 1446 1453 1462 1474 1481 1490 1497 1504 1509 1514 1518 1522 1527 1530 1533 1536 1540 1545 1549 1553 1556 1559 1562 1563 1565 1567
1458 1456 1457 1460 1462 1462 1464 1471 1482 1485 1481 1474 1456 1461 1450 1435 1432 1447 1441 1447 1456 1467 1476 1483 1489 1496 1502 1507 1512 1517 1521 1525 1529 1531 1534 1540 1544 1548 1552 1555 1558 1560 1562 1563
1459 1462 1447 1452 1456 1461 1460 1464 1472 1486 1472 1463 1446 1456 1443 1433 1432 1440 1445 1448 1453 1460 1470 1477 1482 1489 1495 1501 1505 1510 1514 1519 1523 1526 1529 1534 1540 1544 1547 1550 1553 1556 1558 1559
1456 1445 1435 1439 1446 1456 1452 1459 1447 1464 1456 1457 1437 1425 1425 1428 1428 1433 1441 1446 1451 1457 1465 1471 1477 1483 1489 1495 1499 1502 1508 1512 1517 1520 1524 1528 1533 1538 1541 1545 1547 1550 1553 1556
1442 1449 1433 1428 1435 1441 1445 1441 1462 1452 1478 1471 1446 1437 1429 1427 1433 1433 1436 1439 1447 1453 1460 1466 1472 1478 1484 1489 1495 1498 1502 1506 1511 1515 1518 1522 1526 1531 1536 1539 1542 1544 1547 1550
1433 1439 1435 1429 1425 1431 1441 1440 1436 1442 1447 1456 1462 1440 1414 1412 1417 1426 1430 1433 1439 1448 1455 1460 1466 1473 1479 1485 1489 1492 1496 1500 1504 1509 1512 1516 1520 1524 1528 1532 1535 1537 1541 1543
1425 1428 1429 1426 1413 1418 1425 1427 1428 1440 1449 1439 1443 1434 1409 1404 1412 1421 1425 1429 1433 1441 1449 1455 1462 1468 1474 1479 1484 1486 1490 1493 1498 1502 1505 1509 1514 1517 1520 1523 1527 1530 1533 1537
1419 1420 1432 1426 1417 1409 1416 1413 1417 1422 1429 1434 1439 1431 1409 1410 1413 1417 1423 1426 1431 1439 1446 1452 1458 1463 1468 1473 1478 1481 1483 1487 1492 1496 1499 1502 1505 1508 1511 1515 1520 1524 1526 1530
1418 1413 1408 1414 1408 1402 1417 1416 1412 1416 1430 1422 1416 1417 1410 1408 1414 1415 1422 1425 1433 1440 1444 1449 1455 1459 1464 1468 1472 1475 1478 1482 1486 1490 1493 1494 1496 1500 1504 1509 1513 1517 1520 1523
1412 1409 1406 1396 1397 1393 1393 1403 1408 1410 1401 1421 1409 1411 1403 1402 1408 1415 1421 1425 1430 1436 1441 1445 1450 1455 1459 1463 1467 1471 1474 1477 1480 1484 1486 1487 1490 1495 1499 1502 1505 1510 1513 1516
1406 1400 1401 1398 1387 1388 1387 1382 1391 1398 1392 1398 1404 1402 1396 1397 1403 1408 1414 1421 1426 1431 1437 1442 1446 1450 1454 1458 1462 1466 1469 1472 1475 1478 1481 1484 1486 1488 1491 1495 1498 1502 1505 1507
1433 1411 1393 1394 1381 1382 1384 1377 1374 1378 1385 1385 1395 1389 1394 1392 1393 1398 1406 1413 1421 1429 1435 1440 1443 1447 1450 1454 1458 1461 1464 1468 1471 1474 1477 1480 1482 1483 1485 1489 1491 1494 1496 1500
1427 1424 1397 1380 1373 1388 1368 1362 1364 1369 1373 1376 1378 1383 1387 1389 1392 1399 1403 1410 1418 1426 1434 1438 1439 1442 1445 1449 1453 1457 1460 1463 1466 1470 1473 1475 1477 1479 1481 1483 1485 1487 1490 1492
1423 1418 1401 1376 1368 1365 1357 1356 1362 1363 1365 1364 1371 1377 1379 1382 1388 1395 1403 1412 1420 1426 1433 1435 1435 1438 1441 1444 1448 1453 1456 1459 1462 1465 1468 1470 1472 1475 1477 1478 1480 1482 1485 1487
1401 1404 1399 1373 1366 1368 1349 1347 1352 1355 1361 1358 1363 1368 1373 1379 1389 1394 1407 1414 1420 1426 1431 1432 1432 1434 1437 1441 1446 1450 1453 1455 1458 1461 1464 1467 1469 1470 1472 1474 1475 1477 1479 1481
1385 1388 1385 1376 1362 1344 1339 1340 1345 1362 1359 1351 1357 1362 1369 1377 1384 1390 1404 1415 1421 1425 1428 1428 1431 1433 1435 1441 1446 1448 1451 1454 1456 1459 1461 1463 1465 1467 1469 1470 1471 1472 1475 1476
1379 1375 1371 1367 1362 1358 1335 1342 1350 1349 1349 1349 1349 1355 1365 1378 1392 1396 1403 1411 1418 1422 1425 1428 1429 1432 1439 1443 1446 1448 1450 1452 1454 1457 1459 1461 1463 1465 1466 1466 1467 1468 1469 1471
1363 1370 1357 1353 1350 1351 1351 1353 1354 1354 1351 1352 1350 1353 1365 1382 1395 1401 1405 1411 1416 1420 1424 1427 1430 1435 1439 1443 1445 1448 1450 1452 1454 1456 1458 1460 1461 1462 1462 1464 1463 1464 1465 1465
1344 1363 1372 1363 1358 1357 1359 1361 1359 1356 1355 1357 1359 1364 1374 1385 1396 1403 1408 1412 1418 1422 1425 1429 1432 1436 1440 1443 1444 1447 1449 1452 1454 1456 1457 1458 1459 1460 1460 1461 1461 1460 1460 1459
1339 1353 1363 1374 1363 1364 1363 1365 1363 1363 1364 1366 1371 1376 1383 1391 1399 1404 1409 1415 1420 1424 1427 1431 1435 1438 1440 1442 1444 1446 1448 1451 1453 1455 1456 1456 1457 1457 1458 1459 1459 1458 1457 1456
1330 1339 1348 1354 1358 1352 1355 1359 1368 1368 1374 1378 1379 1382 1391 1397 1401 1407 1413 1418 1421 1426 1429 1433 1436 1438 1440 1442 1444 1445 1445 1447 1449 1452 1454 1454 1454 1455 1455 1455 1455 1453 1453 1452
Wind_Speed
24 16 21 25 24 24 24 24 24 20 16 19 19 20 13 15 18 13 18 20 22 24 25 23 25 25 24 24 24 24 24 24 24 21 20 19 18 17 16 15 15 16 15 14
18 25 24 22 23 25 25 25 24 16 19 21 15 19 21 12 17 15 20 21 23 23 28 26 27 27 27 26 26 25 25 26 25 22 20 18 17 17 17 16 17 17 17 16
24 23 23 22 21 25 23 25 21 22 17 14 13 22 22 14 16 11 10 21 24 27 31 30 29 30 29 28 29 28 27 27 27 23 21 19 17 17 18 19 19 18 18 17
26 27 22 25 25 22 25 24 23 22 20 18 18 16 21 21 22 18 21 19 25 27 30 31 31 31 31 30 29 28 28 27 27 26 23 23 22 22 20 20 19 18 19 18
30 26 25 29 24 23 25 21 22 21 23 22 24 15 16 16 17 21 21 29 28 30 33 33 33 32 31 30 30 29 29 28 28 29 26 25 23 20 18 19 19 20 20 20
30 31 25 26 24 24 24 22 25 21 19 19 22 20 18 18 19 25 19 26 33 30 33 33 32 31 30 30 29 30 30 30 29 30 31 28 26 22 20 20 20 20 19 20
29 29 27 22 22 24 22 21 15 16 15 19 21 21 19 20 13 12 13 10 22 27 31 33 34 34 33 33 31 30 32 32 31 32 32 30 27 26 23 22 22 21 21 21
22 26 31 27 26 23 22 22 16 22 17 20 23 23 18 24 25 12 9 13 12 25 31 34 34 34 33 33 33 31 32 33 33 33 32 32 28 26 25 25 23 23 21 21
24 30 22 29 26 24 25 22 26 24 21 15 18 18 24 10 15 15 14 17 18 25 33 33 33 32 32 32 34 34 31 32 33 33 33 32 31 29 27 26 27 24 23 21
28 29 28 24 29 30 30 22 19 18 24 26 18 21 15 19 16 15 17 20 23 27 31 31 31 31 30 30 30 31 30 30 32 34 34 33 32 31 29 29 29 28 26 25
29 24 28 26 26 27 21 23 19 20 20 18 18 19 21 14 20 20 18 22 26 27 30 30 30 29 28 27 29 29 29 29 30 33 34 33 34 32 31 31 31 31 29 28
28 23 23 33 24 26 28 29 29 12 25 18 18 18 23 17 15 17 21 21 21 27 28 29 29 28 27 27 27 28 28 29 29 30 32 35 35 34 34 36 33 34 33 30
22 22 21 26 29 23 29 31 26 23 17 25 17 19 19 7 10 18 17 21 17 16 25 27 27 27 25 25 26 26 27 28 28 28 30 33 36 37 38 37 36 34 33 32
23 23 24 21 27 24 26 30 29 25 16 23 22 20 22 16 14 14 15 16 18 23 25 26 25 24 23 23 24 24 25 26 27 28 29 32 36 38 37 35 36 36 34 33
25 27 27 29 34 32 31 30 29 29 31 24 25 25 22 21 15 18 20 22 26 25 23 22 22 21 21 21 21 22 23 25 26 28 29 33 32 32 32 33 34 34 35 34
19 23 27 32 33 34 35 31 31 31 34 32 29 29 23 24 29 27 24 25 25 22 21 18 17 16 17 18 19 20 22 23 24 27 28 26 27 28 31 32 33 35 36 36
14 16 25 28 33 30 30 33 30 31 29 30 27 28 24 22 21 24 26 28 27 25 22 19 17 15 13 14 16 19 20 21 22 23 23 24 25 26 27 28 30 33 35 36
21 23 19 20 27 33 21 29 33 28 24 28 28 25 26 30 18 15 19 21 23 23 18 17 15 13 12 11 12 15 18 19 20 21 21 22 23 24 24 26 30 32 34 36
21 19 10 18 23 22 27 28 29 28 30 26 25 24 24 26 22 14 14 17 20 18 17 15 14 13 10 9 10 12 15 16 17 18 19 19 20 21 22 24 27 28 32 34
27 24 18 16 24 28 22 26 25 20 22 27 22 20 21 18 13 12 19 18 20 18 16 15 14 13 11 9 9 12 12 13 13 14 15 15 16 18 19 21 25 29 30 30
19 16 19 17 17 18 24 21 31 26 19 23 32 28 25 16 15 19 28 22 20 18 17 16 15 14 13 11 11 11 10 10 10 10 11 12 12 13 13 17 22 24 25 28
11 12 11 18 19 15 11 10 14 9 10 12 28 29 29 21 16 29 28 26 22 20 19 17 18 17 14 12 13 13 11 9 9 8 8 8 8 9 10 14 17 18 21 23
7 4 3 9 13 5 10 12 7 1 4 6 9 14 30 28 26 27 27 25 22 20 19 18 19 18 15 14 12 12 10 8 8 7 5 5 5 6 7 10 13 17 21 25
15 7 3 5 5 4 3 4 3 4 8 10 18 28 30 30 28 26 25 24 22 20 19 18 17 17 16 14 14 12 9 6 5 4 2 2 3 5 6 8 11 15 18 20
16 12 14 8 4 3 3 3 5 11 14 19 22 26 28 29 27 26 24 22 20 19 18 16 15 14 13 11 10 9 8 7 4 2 1 3 4 8 8 10 11 14 15 19
15 19 13 11 23 14 17 12 14 20 21 19 25 28 25 25 25 23 22 19 18 16 14 13 11 10 9 7 6 5 3 3 4 4 4 6 7 8 11 12 14 19 21 22
Wind_Direction
209 216 219 221 227 234 248 240 231 232 233 184 227 250 240 261 167 195 181 181 186 191 188 184 182 183 182 182 182 180 180 184 180 184 184 188 192 190 195 196 197 194 194 194
220 227 226 234 243 237 249 256 258 226 242 231 241 257 254 245 237 202 199 183 189 189 186 184 183 184 184 185 184 183 185 186 186 189 189 193 193 195 196 197 202 195 196 197
223 224 241 254 237 251 240 248 250 256 250 228 237 258 256 240 239 191 220 188 191 191 187 186 186 187 187 191 188 188 188 190 190 190 190 192 194 197 196 201 203 202 200 200
234 233 231 219 242 239 245 234 251 258 249 250 207 248 238 234 234 183 193 197 192 191 191 190 190 190 192 194 193 192 191 193 193 190 195 197 196 198 200 200 201 204 202 203
242 234 233 243 231 231 247 244 252 250 259 260 251 254 259 247 225 204 204 192 195 192 192 192 194 195 195 194 195 195 195 197 197 196 195 201 199 203 203 202 203 198 205 203
246 250 233 244 231 236 240 242 246 236 237 251 247 257 246 235 189 224 213 213 188 189 190 192 195 196 196 196 197 198 198 201 201 201 195 204 203 201 204 203 205 204 204 204
244 239 249 229 251 234 231 230 232 232 230 243 243 242 244 260 252 228 219 235 191 186 188 188 190 194 196 196 196 199 201 203 204 207 206 204 206 204 207 208 206 208 205 206
238 242 227 235 228 239 224 227 233 227 229 236 228 240 242 234 251 206 224 240 196 184 190 190 190 193 196 197 198 198 201 203 206 208 208 207 209 211 208 212 210 211 211 211
249 253 237 221 220 228 229 225 229 243 259 259 256 231 224 247 242 226 222 206 203 192 189 190 190 193 195 198 200 201 201 205 207 209 210 211 209 209 213 212 211 214 213 213
240 262 255 250 213 216 237 218 223 230 238 251 243 253 217 201 221 215 223 203 191 188 189 189 188 191 194 198 201 202 203 205 206 210 213 211 212 213 210 215 215 212 214 209
256 237 252 251 231 215 221 233 224 228 229 244 249 246 257 226 203 214 219 202 192 185 189 187 188 189 192 195 199 202 203 203 206 208 211 211 212 213 212 215 212 217 212 213
252 246 245 244 248 217 234 220 230 216 230 233 247 244 250 222 189 204 213 205 197 183 188 187 186 185 187 192 197 201 202 203 205 206 209 212 212 214 215 214 213 218 214 213
251 246 237 243 239 227 219 237 222 231 227 233 226 238 257 202 208 217 214 213 177 189 185 181 181 183 186 191 196 200 201 204 204 205 209 211 212 214 217 219 213 217 217 214
261 248 239 232 236 227 221 232 235 218 231 233 241 231 233 198 205 204 200 199 183 187 177 176 179 184 189 195 198 200 203 203 203 204 207 213 215 216 219 220 217 216 220 216
263 249 253 244 237 237 227 219 230 236 225 226 235 240 234 235 191 195 198 184 187 187 180 180 181 186 190 195 200 202 203 203 203 205 208 215 222 217 216 219 218 217 220 221
293 245 241 246 241 235 245 227 213 230 234 226 232 241 236 229 193 204 205 204 203 190 190 181 177 180 186 194 201 204 204 205 204 208 211 213 214 214 216 218 218 217 220 221
290 280 231 232 239 233 235 238 234 221 233 232 230 230 239 238 234 207 203 203 204 204 190 185 177 177 182 190 203 209 208 207 209 211 213 213 215 216 216 216 217 219 221 220
269 277 277 224 231 232 236 231 238 237 228 233 235 237 232 242 217 230 221 203 210 201 191 188 173 170 176 183 197 204 209 208 210 213 215 215 215 217 218 219 220 221 223 224
251 261 274 239 233 237 224 226 231 229 237 227 226 229 231 232 219 192 195 199 198 189 192 180 166 160 159 163 184 192 194 201 206 210 214 215 215 216 219 222 223 224 225 228
246 244 253 250 226 227 223 216 234 227 242 236 230 217 224 206 185 181 182 182 174 176 175 160 143 136 135 139 157 170 177 186 196 202 207 211 213 215 218 222 225 225 227 229
212 228 233 231 250 216 231 219 210 218 238 219 228 224 221 180 210 192 165 170 167 162 153 138 129 120 114 123 138 146 151 161 174 184 191 200 207 212 213 219 227 233 232 232
204 203 211 225 225 221 210 138 197 223 230 240 221 205 202 160 140 146 153 154 152 147 138 130 118 109 111 118 126 127 127 133 138 148 160 175 189 202 208 216 222 229 230 235
203 211 283 233 206 44 17 358 67 193 186 197 191 167 137 141 149 148 147 144 141 137 132 126 119 112 107 106 116 114 109 114 119 128 145 168 192 208 220 223 235 243 237 244
207 135 239 234 225 198 4 344 338 143 137 137 137 132 140 144 146 142 138 133 130 128 125 123 118 111 104 99 97 95 88 91 103 123 153 199 217 235 245 235 235 249 254 250
233 198 211 261 168 233 269 235 135 112 128 133 132 138 142 143 143 140 135 131 127 123 120 119 116 110 102 96 86 80 70 64 66 34 309 284 269 280 256 254 248 253 253 259
218 211 221 219 190 216 169 140 142 129 123 131 134 134 138 140 136 134 130 129 124 117 115 109 103 100 92 85 75 49 14 352 349 341 310 291 284 280 276 275 270 278 272 263